カタログに戻る

STARLINK-32336

運用中通信VLEO
NORAD 61004·PAYLOAD·🇺🇸 United States

打ち上げ Sep 5, 2024 から Cape Canaveral Space Force Station

Loading…

次のパス (今後24時間)

TLE

最新Source: CelesTrak SupGP

元期: Sep 15, 2026, 02:18 UTC

1 61004C 24158Q   26258.09631944 -.00008830  00000+0 -26122-3 0  2584
2 61004  53.1574 262.7252 0001192 104.4453 235.3561 15.34355805    13

AllMySatでSTARLINK-32336をリアルタイム追跡

Download on the App Store